Voltar ao catálogo

SL-14 DEB

AtivoPO
NORAD 45318·DEBRIS·🇷🇺 Russia

Lançado Aug 15, 1991 de Plesetsk Cosmodrome

Loading…

Próximas Passagens (próximas 24 horas)

TLE

AtualizadoSource: Space-Track

Época: Sep 14, 2026, 10:51 UTC

1 45318U 91056BG  26257.45269641  .00000199  00000-0  46679-3 0  9995
2 45318  82.5657  73.8612 0010974 207.7424 152.3116 13.19759913315343

Acompanhe SL-14 DEB em tempo real com AllMySat

Download on the App Store